Hourly Data Report for October 17, 2015

All times are specified in Local Standard Time (LST). Add 1 hour to adjust for Daylight Saving Time where and when it is observed.

EUREKA CLIMATE
NUNAVUT

79°59'21.000" N
85°56'02.000" W
10.00 m
2401199
71613
NEK

Download Data

Hourly Data (October 2015)
Hourly Data Report for October 17, 2015
Temp Definition
°C
Dew Point Temp Definition
°C
Rel Hum Definition
%
Wind Dir Definition
10's deg

Wind Spd Definition
km/h
Visibility Definition
km
Stn Press Definition
kPa
Hmdx Definition


Wind Chill Definition


Weather Definition


TIME
00:00 -12.5 -13.4 93 31 12   100.30   -19 LegendNANA
01:00 -12.3 -13.3 92 30 12   100.33   -19 LegendNANA
02:00 -13.0 -14.2 91 14 4   100.37   -16 LegendNANA
03:00 -13.6 -14.6 92 10 7   100.40   -18 LegendNANA
04:00 -13.5 -14.6 92 10 7   100.43   -18 LegendNANA
05:00 -13.8 -14.8 92 11 14   100.46   -21 LegendNANA
06:00 -13.4 -14.5 92 12 11   100.47   -20 LegendNANA
07:00 -13.6 -14.7 91 11 8   100.51   -19 LegendNANA
08:00 -13.6 -14.6 92 11 10   100.51   -20 LegendNANA
09:00 -13.4 -14.7 90 13 10   100.53   -19 LegendNANA
10:00 -13.7 -14.9 91 10 10   100.54   -20 LegendNANA
11:00 -13.5 -14.7 91 10 9   100.55   -19 LegendNANA
12:00 -13.7 -14.8 91 11 7   100.56   -18 LegendNANA
13:00 -14.3 -15.7 89 6 6   100.59   -18 LegendNANA
14:00 -16.3 -17.7 89 2 12   100.61   -24 LegendNANA
15:00 -16.7 -18.1 89 2 7   100.65   -22 LegendNANA
16:00 -17.2 -18.9 87 2 11   100.64   -24 LegendNANA
17:00 -17.3 -18.9 88 2 7   100.65   -23 LegendNANA
18:00 -17.8 -19.3 88 2 8   100.67   -24 LegendNANA
19:00 -18.2 -19.5 89 2 11   100.65   -25 LegendNANA
20:00 -18.9 -20.5 88 6 5   100.65   -23 LegendNANA
21:00 -19.5 -21.0 88 2 12   100.64   -27 LegendNANA
22:00 -19.1 -20.6 88 9 5   100.67   -23 LegendNANA
23:00 -20.5 -22.2 87 9 4   100.69   -24 LegendNANA

Notes on Data Quality.

Legend

  • E = Estimated
  • M = Missing
  • NA = Not Available
  • ‡ = Partner data that is not subject to review by the National Climate Archives
Date modified: